Regional Weather Roundup
Issued by NWS Upton, NY

Current Version | Previous Version | Graphics & Text | Print | Product List | Glossary Off
Versions: 1 2 3 4 5 6 7 8 9 10 11 12 13 14 15 16 17 18 19 20 21 22 23 24 25 26 27 28 29 30 31 32 33 34 35 36 37 38 39 40 41 42 43 44 45 46 47 48 49 50

000
ASUS41 KOKX 032304
RWROKX

REGIONAL WEATHER ROUNDUP
NATIONAL WEATHER SERVICE NEW YORK NY
700 PM EDT MON AUG 03 2015

NOTE: "FAIR" INDICATES FEW OR NO CLOUDS BELOW 12,000 FEET WITH NO
SIGNIFICANT WEATHER AND/OR OBSTRUCTIONS TO VISIBILITY.

NYZ071-072-176-178-NJZ106-104-040000-
NEW YORK CITY METRO AREA


CITY           SKY/WX    TMP DP  RH WIND       PRES   REMARKS
CENTRAL PARK   PTSUNNY   86  59  39 VRB7      29.80S
LAGUARDIA APRT PTSUNNY   86  66  51 S7        29.76S
KENNEDY INTL   PTSUNNY   81  71  71 S22       29.79F
NEWARK/LIBERTY PTSUNNY   90  56  31 SW17G25   29.77R
BRNX BOT. GARD   N/A     88  57  35 E9        29.78R
TETERBORO      PTSUNNY   89  55  31 SW20      29.75S
$$

NYZ177-179-078>081-040000-
LONG ISLAND NEW YORK

CITY           SKY/WX    TMP DP  RH WIND       PRES   REMARKS
FARMINGDALE    SUNNY     81  71  71 SW17      29.80R
ISLIP          MOSUNNY   80  71  74 S16G24    29.79R
SHIRLEY        SUNNY     79  72  79 S12G21    29.81R
WESTHAMPTON    SUNNY     79  72  79 S15G25    29.82S
MONTAUK POINT    N/A     79  71  76 S10G18    29.82R
$$

NYZ052-065-067-040000-
HUDSON VALLEY

CITY           SKY/WX    TMP DP  RH WIND       PRES   REMARKS
WHITE PLAINS   MOSUNNY   82  67  60 S10       29.78S
NEWBURGH       PTSUNNY   84  63  48 W12G17    29.77F
MONTGOMERY     PTSUNNY   81  67  62 W3        29.76F
POUGHKEEPSIE   PTSUNNY   86  59  39 SW9       29.74S
ALBANY         PTSUNNY   73  66  78 E3        29.74F
$$

NJZ001-105-106-008-010-013-015-019>022-104-040000-
NEW JERSEY

CITY           SKY/WX    TMP DP  RH WIND       PRES   REMARKS
NEWARK/LIBERTY PTSUNNY   90  56  31 SW17G25   29.77R
TETERBORO      PTSUNNY   89  55  31 SW20      29.75S
CALDWELL       PTSUNNY   88  56  33 VRB7      29.77R
MORRISTOWN     CLOUDY    90  55  31 W13G18    29.78R
SOMERVILLE     PTSUNNY   86  57  37 VRB3      29.76S
SUSSEX         PTSUNNY   81  64  56 CALM      29.78S
ANDOVER          N/A     78  66  66 CALM      29.80S
TRENTON        MOSUNNY   87  58  37 SW10      29.79R
MILLVILLE      MOSUNNY   87  67  51 SW5       29.82R HX  90
ATLANTIC CITY  SUNNY     85  70  60 S9        29.81S
WRIGHTSTOWN    MOSUNNY   86  62  45 SW14G20   29.78R
TOMS RIVER       N/A     82  72  69 S8        29.81R
BELMAR         MOSUNNY   84  66  54 SW6       29.80R
$$

PAZ047>061-062-071-040000-
EASTERN PENNSYLVANIA

CITY           SKY/WX    TMP DP  RH WIND       PRES   REMARKS
PHILADELPHIA   MOSUNNY   89  63  41 SW15      29.80S HX  90
ALLENTOWN      CLOUDY    85  63  47 SW13      29.79S
SCRANTON       PTSUNNY   84  60  44 SW14G20   29.79R
$$

CTZ002-004>006-009-010-012-RIZ004-006-007-MAZ004-011-015-040000-
SOUTHERN NEW ENGLAND
 IN CT

CITY           SKY/WX    TMP DP  RH WIND       PRES   REMARKS
BRADLEY INTL   PTSUNNY   84  64  50 S13       29.73F
HARTFORD       MOSUNNY   83  65  54 S13       29.74F
DANBURY        MOSUNNY   82  64  54 S9        29.78S
WTRBRY/OXFORD  PTSUNNY   79  64  61 S8G16     29.81F
BRIDGEPORT     SUNNY     81  69  67 S15       29.76F
MERIDEN        MOSUNNY   83  64  52 S12G20    29.76F
NEW HAVEN      PTSUNNY   80  68  66 S10       29.78S
CHESTER        NOT AVBL
GROTON         SUNNY     76  69  79 SW10      29.79F
WILLIMANTIC    SUNNY     81  67  62 S9        29.78F

 IN RI

CITY           SKY/WX    TMP DP  RH WIND       PRES   REMARKS
PROVIDENCE     PTSUNNY   80  65  59 S14       29.80S
BLOCK ISLAND     N/A     75  72  88 SW15      29.83R
WESTERLY       SUNNY     78  69  73 SW13      29.81S

 IN MA

CITY           SKY/WX    TMP DP  RH WIND       PRES   REMARKS
BOSTON         PTCLDY    81  62  52 S15       29.76R
WORCESTER      MOSUNNY   77  60  55 S12       29.79F
WESTFIELD      PTSUNNY   83  62  49 S12       29.73F
PROVINCETOWN   CLEAR     75  66  73 S14       29.79S
NANTUCKET      CLEAR     76  71  85 SW13      29.84R
$$

ANZ330-335-338-340-345-350-353-355-040000-
COASTAL MARINE OBSERVATIONS


STATION/POSITION TIME  SKY/WX   TEMP    WIND        PRES    VSBY  WAVE
                                AIR SEA DIR/SP/G                  HT/PER
                 (UTC)          (F)     (DEG/KT/KT) (MB)    (MI)  (FT/S)
NY HARB ENTRANCE 2150            79 77  200/ 21/ 25 1008.0          4/ 5
4S FIRE IS       NOT AVBL
20S FIRE ISLAND  2150            78 77  200/ 17/ 21 1008.8          4/ 5
GREAT SOUTH BAY  2200            78 81  220/ 12/ 21   N/A
23SW MTP         2250            78 75  210/ 17/ 19 1009.3          4/ 5
HUDSON CANYON    NOT AVBL
KINGS POINT      2200            81 72  210/ 14/ 17 1007.4
EXECUTION ROCKS  2200            81     180/  8/ 12   N/A
CENTRAL LI SOUND NOT AVBL
EASTERN LI SOUND 2200            75 68  220/ 14/ 17   N/A
ROBBINS REEF     2200            87     210/ 15/ 18 1006.8
$$


>>>>>>>>>>>>>>>>>>>>>>>>>>>> KEY <<<<<<<<<<<<<<<<<<<<<<<<<<<
>                                                          <
>     SKY/WX - SKY CONDITION/PRESENT WEATHER               <
>     TMP    - TEMPERATURE IN FAHRENHEIT                   <
>     DP     - DEWPOINT IN FAHRENHEIT                      <
>     RH     - RELATIVE HUMIDITY IN PERCENT                <
>     WIND   - DIRECTION AND SPEED IN MPH                  <
>     PRES   - MEAN SEA LEVEL PRESSURE IN INCHES OF HG     <
>     WCI    - WIND CHILL INDEX                            <
>     VSB    - VISIBILITY IN MILES                         <
>     HX     - HEAT INDEX                                  <
>     TC     - TEMPERATURE IN CELSIUS                      <
>     VRB    - VARIABLE WIND DIRECTION                     <
>                                                          <
>>>>>>>>>>>>>>>>>>>>>>>>>>>> KEY <<<<<<<<<<<<<<<<<<<<<<<<<<<





USA.gov is the U.S. government's official web portal to all federal, state and local government web resources and services.